Погода в Имеретинской

Россия / Краснодарский край     44°41′10″N   39°25′47″E
темп.,
°C
ветер,
м/с
пор.,
м/с
влажн.,
%
обл.,
%
осадки,
мм/ч
давл.,
гПа
погр.,
м
29 января, сб
сб2900:00+2юз71588100 0.0 1019853
03:00+2юз61588100 0.1 1019850
06:00+3ююз71580100 0.0 1018918
09:00+3ююз91880100 0.0 10181112
12:00+4юз8188999 0.3 10191399
15:00+3ююз9169292 1.9 10191022
18:00+3ююз7159596 1.0 10201066
21:00+3юз51195100 2.3 1021834
30 января, вс
вс3000:00+3юз399380 1.1 1021700
03:00+2з279493 1.6 1021472
06:00+2зсз1597100 0.1 1020251
09:00+2юз299371 0.1 1019581
12:00+5юз6127952 0.2 10171379
15:00+4юз41092100 0.8 1015882
18:00+3юз5129383 0.3 10141028
21:00+3ююз51379100 0.4 1013842
31 января, пн
пн3100:00+4ююз7166974 0.0 10111116
03:00+5ююз81667100 0.0 10101157
06:00+4ююз8167677 0.1 10091117
09:00+4ююз7168797 0.3 10101149
12:00+5ююз9188999 0.4 10101281
15:00+5юз6138357 1.3 10111264
18:00+5юз61375100 0.0 1013978
21:00+5ююз6137779 0.0 1014845
1 февраля, вт
вт100:00+4юз5118798 0.1 1015816
03:00+4ююз6138750 0.4 1015823
06:00+3ююз4108973 0.1 1016376
09:00+3ююз2118867 0.1 1016501
12:00+7ююв3567100 0.0 1016839
15:00+7в2265100 0.0 1014533
18:00+5в2377100 0.0 101456
21:00+4в1179100 0.0 101324
2 февраля, ср
ср200:00+3юв1179100 0.0 101314
03:00+3юв2278100 0.0 101213
06:00+9ююз81654100 0.0 1011926
09:00+9ю61454100 0.0 1011648
12:00+11ююз101951100 0.0 10101508
15:00+10ююз81759100 0.1 10101223
18:00+9ююз81770100 0.0 10111067
21:00+9ююз61771100 0.0 10111055